Location: Newark
(43.9494°N, 6.8108°E)
Time: 22:07:50
(UTC+00:00)

Transit 2A Rocket - Pass Details

Date: 27 October 2019
Orbit: 594 x 909 km, 66.7° (Epoch: 17 November)

Event Time Altitude Azimuth Distance (km) Brightness Sun altitude
Exits shadow 03:45:10 27° 353° (N) 1,279 6.1 -25.2°
Drops below altitude 10° 03:47:37 10° 17° (NNE) 2,039 7.5 -24.7°
Sets 03:49:59 0° 26° (NNE) 2,915 8.4 -24.3°
